Preview of NWS' New Version of Forecast
This preview is not operational and should not be used for support decisions.
Latest weather observations around

State College - University Park Airport (KUNV)

Using English Units (Switch to International System of Units)
Date/ Time (EDT) Wind (mph) Vis. (mi) Weather Sky Cond. Temp (°F) Rel. Humidity Wind Chill (°F) Heat Index (°F) Pressure Precip. (in)
Air Dwpt 6 hour Altimeter (inHg) Sea level (inHg) 1 hr 3 hr 6 hr
Max Min
Mar 18 21:53 NW 6 10 Clear CLR 34 14     44% 29   30.32        
Mar 18 20:53 WNW 9 10 Partly Cloudy SCT080 36 12     38% 29   30.31        
Mar 18 19:53   10 Mostly Cloudy BKN085 36 12     38%     30.29        
Mar 18 18:53 W 15 10 Mostly Cloudy BKN080 37 10     32% 29   30.26        
Mar 18 17:53 WNW 13 10 Mostly Cloudy BKN080 41 10     28% 34   30.24        
Mar 18 16:53 WNW 9 10 Cloudy OVC070 39 12     33% 33   30.23        
Mar 18 15:53 NNW 9 10 Cloudy OVC070 39 12     33% 33   30.22        
Mar 18 14:53 SW 9 10 Cloudy OVC075 41 12     30% 35   30.23        
Mar 18 13:53 WSW 7 10 Cloudy OVC060 39 14     35% 34   30.24        
Mar 18 12:53 WNW 8 10 Mostly Cloudy BKN060 37 12     35% 31   30.26        
Mar 18 11:53 Calm 10 Partly Cloudy SCT070 36 12     38%     30.27        
Mar 18 10:53 Calm 10 Partly Cloudy SCT080 34 12     40%     30.27        
Mar 18 09:53 Calm 10 Mostly Cloudy BKN080 32 12     43%     30.26        
Mar 18 08:53 Calm 10 Mostly Cloudy BKN080 28 18     64%     30.25        
Mar 18 07:53 Calm 10 Mostly Cloudy BKN090 25 14     63%     30.23        
Mar 18 06:53 Calm 10 Mostly Cloudy SCT065 BKN085 25        %     30.22        
Mar 18 05:53 Calm 10 Mostly Cloudy SCT070 BKN085 27 10     50%     30.21        
Mar 18 05:36 Calm 10 Mostly Cloudy BKN070 BKN085 26 15     64%     30.2        
Mar 18 05:35 Calm 10 Mostly Cloudy BKN070 BKN085 26 15     64%     30.2        
Mar 18 05:16 Calm 10 Partly Cloudy SCT070 SCT080 27 14     59%     30.2        
Mar 18 05:15 Calm 10 Partly Cloudy SCT070 SCT080 27 14     59%     30.2        
Mar 18 04:56 Calm 10 Mostly Cloudy SCT050 BKN065 BKN080 26 17     67%     30.2        
Mar 18 04:55 Calm 10 Mostly Cloudy SCT050 BKN065 BKN080 26 17     68%     30.2        
Mar 18 04:35 Calm 10 Cloudy OVC050 28 15     58%     30.2        
Mar 18 04:15 Calm 10 Cloudy SCT038 OVC048 27 17     63%     30.2        
Mar 18 03:56 Calm 10 Cloudy SCT038 OVC047 28 13     53%     30.2        
Mar 18 03:55 Calm 10 Cloudy SCT038 OVC047 28 14     55%     30.2        
Mar 18 03:36 Calm 10 Cloudy SCT042 BKN049 OVC080 26 17     68%     30.2        
Mar 18 03:35 Calm 10 Cloudy SCT042 BKN049 OVC080 26 17     68%     30.21        
Mar 18 03:16 Calm 10 Cloudy BKN043 OVC050 27 16     62%     30.21        
Mar 18 02:55 Calm 10 Cloudy SCT047 BKN060 OVC075 29 12     48%     30.2        
Mar 18 02:35 Calm 10 Cloudy OVC070 27 13     54%     30.2        
Mar 18 02:15 Calm 10 Cloudy BKN070 BKN085 OVC100 29 11     47%     30.2        
Mar 18 01:56 Calm 10 Mostly Cloudy SCT070 SCT085 BKN100 28 11     47%     30.19        
Mar 18 01:55 Calm 10 Mostly Cloudy SCT070 SCT085 BKN100 28 11     47%     30.19        
Mar 18 01:36 Calm 10 Mostly Cloudy BKN075 BKN080 29 11     47%     30.19        
Mar 18 01:35 Calm 10 Mostly Cloudy BKN075 BKN080 29 11     47%     30.19        
Mar 18 01:16 Calm 10 Cloudy OVC075 29 11     48%     30.19        
Mar 18 01:15 Calm 10 Cloudy OVC075 29 11     48%     30.19        
Mar 18 00:55 Calm 10 Mostly Cloudy BKN080 BKN085 29 12     48%     30.19        
Mar 18 00:35 Calm 10 Clear CLR 29 11     46%     30.19        
Mar 18 00:16 Calm 10 Clear CLR 28 11     47%     30.19        
Mar 18 00:15 Calm 10 Clear CLR 28 11     47%     30.19        
Mar 17 23:56 Calm 10 Clear CLR 31 10     42%     30.19        
Mar 17 23:55 Calm 10 Clear CLR 31 10     42%     30.19        
Mar 17 23:35 Calm 10 Clear CLR 29 11     46%     30.19        
Mar 17 23:15 Calm 10 Clear CLR 29 11     46%     30.19        
Mar 17 22:56 Calm 10 Clear CLR 31 11     43%     30.18        
Mar 17 22:55 Calm 10 Clear CLR 31 11     42%     30.18        
Mar 17 22:36 Calm 10 Clear CLR 31 10     42%     30.18        
Mar 17 22:35 WNW 3 10 Clear CLR 31 10     42% 28   30.18        
Mar 17 22:15 Calm 10 Clear CLR 32 10     39%     30.18        
Mar 17 21:53 Calm 10 Clear CLR 32 10     40%     30.18        
Mar 17 20:53 Calm 10 Clear CLR 34 9     34%     30.17        
Mar 17 19:53 NW 6 10 Clear CLR 36 9     32% 31   30.16        
Mar 17 18:53 NW 6 10 Mostly Clear FEW070 37 9     30% 33   30.15        
Mar 17 17:53 NW 8 10 Partly Cloudy SCT070 41 10     28% 36   30.14        
Mar 17 16:53 NW 8 10 Partly Cloudy SCT070 41 10     28% 36   30.14        
Mar 17 15:53 WNW 9 10 Partly Cloudy SCT065 39 10     30% 33   30.15        
Mar 17 14:53 WSW 11 10 Partly Cloudy SCT060 39 10     30% 32   30.17        
Mar 17 13:53 NW 6 10 Partly Cloudy SCT060 37 10     32% 33   30.19        
Mar 17 12:53 WNW 7 10 Partly Cloudy SCT043 36 12     38% 30   30.21        
Mar 17 11:53 WNW 11 10 Partly Cloudy SCT043 36 12     38% 28   30.23        
Mar 17 10:53 WNW 9 10 Mostly Cloudy BKN043 32 14     47% 24   30.24        
Mar 17 09:53 W 9 10 Mostly Cloudy BKN044 BKN050 30 14     50% 22   30.23        
Mar 17 08:53 W 14 10 Clear CLR 30 12     47% 20   30.23        
Mar 17 07:53 W 6 10 Partly Cloudy SCT050 28 14     54% 22   30.22        
Mar 17 06:53 W 6 7 Cloudy SCT040 OVC050 28 18     64% 22   30.2        
Mar 17 05:53 WNW 9 5 Light Snow BKN037 OVC043 30 18     59% 22   30.18        
Mar 17 05:36 W 10 10 Cloudy BKN039 BKN049 OVC060 30 17     57% 21   30.18        
Mar 17 05:35 W 10 10 Cloudy BKN039 BKN049 OVC060 30 17     57% 21   30.18        
Mar 17 05:15 W 6 10 Cloudy SCT043 OVC060 30 16     54% 24   30.17        
Mar 17 04:55 W 7 10 Cloudy SCT049 OVC060 30 15     53% 23   30.17        
Mar 17 04:36 W 8 10 Cloudy OVC060 30 13     48% 23   30.17        
Mar 17 04:35 W 9 10 Cloudy OVC060 31 13     47% 22   30.17        
Mar 17 04:16 WNW 9 10 Cloudy OVC060 30 14     51% 22   30.16        
Mar 17 04:15 WNW 9 10 Cloudy OVC060 30 15     51% 22   30.16        
Mar 17 03:55 W 9 10 Cloudy OVC060 30 17     59% 22   30.16        
Mar 17 03:35 W 11 10 Partly Cloudy SCT060 30 16     57% 20   30.17        
Mar 17 03:16 W 10 10 Partly Cloudy SCT065 30 16     55% 21   30.17        
Mar 17 03:15 W 10 10 Partly Cloudy SCT065 30 15     55% 21   30.17        
Mar 17 02:56 SW 6 10 Mostly Cloudy BKN065 30 17     59% 24   30.17        
Mar 17 02:55 SW 5 10 Mostly Cloudy BKN065 30 17     59% 25   30.17        
Mar 17 02:35 W 11 10 Cloudy OVC065 31 17     56% 21   30.18        
Mar 17 02:15 W 10 10 Cloudy OVC065 31 17     55% 22   30.18        
Mar 17 01:55 W 7 10 Cloudy OVC065 31 16     54% 24   30.18        
Mar 17 01:36 W 13 10 Cloudy OVC065 31 16     54% 21   30.18        
Mar 17 01:35 W 13 10 Cloudy OVC065 31 16     54% 21   30.17        
Mar 17 01:16 WSW 8 10 Mostly Cloudy SCT050 BKN065 29 16     56% 22   30.17        
Mar 17 01:15 WSW 6 10 Mostly Cloudy SCT050 BKN065 29 16     57% 23   30.17        
Mar 17 00:55 WSW 7 10 Cloudy OVC065 28 15     57% 21   30.18        
Mar 17 00:35 W 6 10 Mostly Cloudy BKN065 30 13     50% 24   30.18        
Mar 17 00:16 W 6 10 Partly Cloudy SCT065 29 13     50% 23   30.18        
Mar 17 00:15 W 6 10 Partly Cloudy SCT065 29 13     50% 23   30.18        
Mar 16 23:56 W 9 10 Clear CLR 29 12     48% 21   30.18        
Mar 16 23:55 W 9 10 Clear CLR 30 12     47% 21   30.18        
Mar 16 23:35 W 10 10 Clear CLR 31 11     44% 22   30.18        
Mar 16 23:15   10 Clear CLR 31 12     44%     30.18        
Mar 16 22:56 W 9 10 Partly Cloudy SCT070 30 14     50% 22   30.18        
Mar 16 22:55 W 9 10 Partly Cloudy SCT070 30 14     51% 22   30.18        
Mar 16 22:36 W 5 10 Partly Cloudy SCT070 30 14     50% 25   30.19        
Mar 16 22:35 W 5 10 Partly Cloudy SCT070 30 14     50% 25   30.19        
Mar 16 22:15 W 7 10 Partly Cloudy SCT070 31 14     49% 24   30.19        
Mar 16 21:53 NW 7 10 Mostly Cloudy BKN070 30 14     50% 23   30.19        
Mar 16 20:53 NNW 8 10 Mostly Cloudy BKN070 32 14     47% 25   30.19        
Mar 16 19:53 NW 13 10 Mostly Cloudy BKN070 32 16     51% 22   30.18        
Mar 16 18:53 NW 15 10 Mostly Cloudy BKN070 34 19     55% 24   30.15        
Mar 16 17:53 WNW 15 10 Mostly Cloudy BKN075 36 19     51% 26   30.12        
Mar 16 16:53 WNW 17 10 Cloudy SCT043 BKN050 OVC065 37 19     48% 28   30.1        
Mar 16 15:53 WNW 13 10 Cloudy BKN050 OVC060 36 18     48% 27   30.09        
Mar 16 14:53 W 18 10 Cloudy SCT044 OVC065 37 19     48% 28   30.08        
Mar 16 13:50 WNW 18 10 Clear   36 19     51% 25   30.1        
Mar 16 12:53   10 Cloudy SCT030 BKN049 OVC060 37 21     52%     30.09        
Mar 16 11:53 WNW 17 10 Cloudy BKN048 OVC060 37 21     52% 28   30.08        
Mar 16 09:53 WNW 11 10 Cloudy SCT037 SCT045 OVC006 36 21     55% 28   30.08        
Mar 16 08:53 W 17 10 Cloudy SCT039 OVC047 34 21     60% 23   30.06        
Mar 16 07:53 WNW 9 10 Mostly Cloudy SCT045 BKN065 34 19     55% 26   30.04        
Mar 16 06:53 WNW 15 10 Mostly Cloudy SCT045 BKN050 34 21     60% 24   30.03        
Mar 16 06:25 WNW 20 10 Cloudy and Windy SCT026 BKN041 OVC050 34 25     69% 22   30.02        
Mar 16 06:05   3 Light Rain SCT028 BKN031 BKN060 36 27     69%     29.99        
Mar 16 05:53 W 14 10 Cloudy SCT035 SCT041 OVC060 36 25     64% 27   29.98        
Mar 16 05:36 W 16 10 Cloudy SCT034 SCT039 OVC060 36 26     66% 26   29.97        
Mar 16 05:35 W 16 10 Cloudy SCT034 SCT039 OVC060 36 26     66% 26   29.97        
Mar 16 05:15 W 17 10 Cloudy SCT032 BKN038 OVC060 36 27     67% 27   29.97        
Mar 16 04:55 W 21 10 Cloudy and Windy SCT030 BKN037 OVC060 37 27     69% 26   29.96        
Mar 16 04:36 W 14 10 Cloudy BKN032 BKN041 OVC060 37 28     70% 28   29.95        
Mar 16 04:35 W 15 10 Cloudy BKN032 BKN041 OVC060 37 28     70% 28   29.95        
Mar 16 04:16 W 13 10 Cloudy SCT028 BKN034 OVC060 37 29     72% 29   29.95        
Mar 16 04:15 W 15 10 Cloudy BKN030 BKN040 OVC060 37 29     73% 28   29.95        
Mar 16 03:56 W 15 10 Cloudy SCT029 BKN037 OVC060 37 29     74% 28   29.94        
Mar 16 03:55 W 15 10 Cloudy SCT029 BKN035 OVC060 37 29     74% 28   29.94        
Mar 16 03:35 W 18 10 Cloudy BKN033 OVC039 37 29     72% 28   29.95        
Mar 16 03:15 W 18 10 Cloudy BKN030 OVC040 38 28     66% 28   29.95        
Mar 16 02:56 W 10 10 Cloudy OVC031 38 29     69% 31   29.95        
Mar 16 02:55 W 11 10 Cloudy OVC031 38 29     69% 31   29.95        
Mar 16 02:36   10 Cloudy OVC029 38 29     70%     29.94        
Mar 16 02:35   10 Cloudy OVC029 38 29     70%     29.94        
Mar 16 02:15   10 Cloudy BKN029 BKN033 OVC047 38 30     71%     29.93        
Mar 16 01:55 W 17 10 Cloudy BKN027 BKN038 OVC046 39 31     73% 29   29.93        
Mar 16 01:36 W 13 10 Cloudy SCT028 SCT033 OVC060 39 31     73% 31   29.93        
Mar 16 01:35 W 15 10 Cloudy SCT028 SCT035 OVC060 39 31     73% 30   29.93        
Mar 16 01:16 W 21 10 Cloudy and Windy SCT032 SCT040 OVC060 39 31     75% 29   29.92        
Mar 16 01:15 W 23 10 Cloudy and Windy SCT032 SCT040 OVC060 39 32     76% 28   29.92        
Mar 16 00:56 W 22 10 Cloudy and Windy SCT025 SCT034 OVC060 39 33     77% 29   29.92        
Mar 16 00:55 W 21 10 Cloudy and Windy SCT025 BKN043 OVC060 39 33     77% 29   29.92        
Mar 16 00:35 WNW 20 7 Drizzle SCT026 SCT035 OVC060 39 33     78% 30   29.92        
Mar 16 00:15 W 17 10 Cloudy SCT029 SCT034 OVC060 41 32     70% 32   29.92        
Mar 15 23:56 W 22 10 Cloudy and Windy SCT029 SCT039 OVC060 41 32     70% 31   29.92        
Mar 15 23:55 W 18 10 Cloudy SCT029 SCT039 OVC060 41 32     70% 32   29.92        
Mar 15 23:36 W 18 10 Cloudy SCT031 SCT040 OVC060 41 32     70% 33   29.92        
Mar 15 23:35 W 20 10 Cloudy and Windy SCT031 SCT040 OVC060 41 32     70% 32   29.92        
Mar 15 23:15 W 21 10 Cloudy and Windy SCT027 BKN050 OVC060 42 33     71% 33   29.91        
Mar 15 22:55 W 21 10 Cloudy and Windy SCT028 SCT033 OVC060 42 34     73% 33   29.92        
Mar 15 22:36 W 22 10 Light Drizzle SCT032 OVC060 42 35     75% 33   29.91        
Mar 15 22:35 W 22 10 Drizzle SCT032 OVC060 42 35     75% 33   29.91        
Mar 15 22:16 W 23 10 Mostly Cloudy and Windy SCT034 SCT047 BKN060 44 34     67% 35   29.89        
Mar 15 22:15 W 22 10 Mostly Cloudy and Windy SCT034 SCT047 BKN060 44 34     68% 35   29.89        
May 15 04:55 W 6 10 Clear   61 59     92%     29.92        
May 15 04:35 W 7 10 Cloudy SCT047 BKN070 OVC110 60 59     96%              
May 15 02:15 WSW 3 10 Mostly Cloudy BKN095 62 59     91%     29.93        
May 15 01:35 WSW 5 10 Partly Cloudy SCT095 61 59     93%     29.96        
May 14 20:53 WSW 7 10 Clear CLR 66 61     83%     29.91        
May 13 23:15 N 3 10 Cloudy OVC012 54 54     97%     30.04        
May 13 04:15 N 8 4 Rain OVC003 53 53     100%     30.07        
May 13 01:35 NE 7 10 Cloudy SCT004 OVC012 56 55     96%     30.09        
May 12 01:35 ENE 3 10 Light Rain SCT026 SCT043 BKN095 49 46     92% 48   30.1   0    
May 11 23:55 NE 5 10 Cloudy SCT055 BKN100 OVC120 55 40     57%     30.09        
May 11 23:35 ENE 8 10 Cloudy BKN060 BKN075 OVC120 55 41     59%     30.08        
May 11 22:55 NNE 7 10 Mostly Cloudy SCT060 BKN090 BKN110 58 35     41%     30.1        
Jun 12 05:15 Calm 10 Clear CLR 63 59     85%     30.12        
Jun 12 01:35 WSW 6 10 Clear CLR 67 59     76%     30.09        
Notice The following observation data may not be complete
Jun 11 22:35   10 Clear            %              
Jun 11 18:53 W 13 10 Clear CLR 82 59     45%   82 30.08        
Jun 11 12:53 WSW 17 10 Clear CLR 84 57     40%   83 30.11        
Jun 11 04:15 Calm 10 Partly Cloudy SCT060 SCT070 SCT090 63 58     85%     30.09        
Jun 11 03:35 Calm 10 Clear   64 58     80%     30.08        
Jun 10 23:15 SSW 7 10 Clear CLR 69 59     69%     30.06        
Jun 10 11:53 WSW 13 10 Mostly Cloudy BKN090 BKN110 77 59     54%   77 30.03        
Jun 10 05:53 Calm 10 Mostly Cloudy BKN065 BKN100 59 55     88%     29.99        
Jun 09 14:53   10 Partly Cloudy SCT070 SCT085 75 48     38%   74 29.86        
Jun 09 04:15 SSW 3 10 Clear CLR 54 50     87%     29.8        
Jun 09 00:55 SSW 3 10 Mostly Cloudy BKN075 BKN095 58 51     77%     29.83        
Jun 08 04:15 Calm 10 Mostly Cloudy SCT060 BKN070 51 50     98%     30.04        
Jun 08 00:35 Calm 10 Clear CLR 52 51     95%     30.06        
Notice The following observation data may not be complete
Jun 07 23:35   10 Partly Cloudy SCT070          %              
Notice The following observation data may not be complete
Jun 07 22:35   10 Cloudy OVC070          %              
Jun 06 05:15 Calm 10 Cloudy OVC016 57 54     88%     29.73        
Notice The following observation data may not be complete
Jun 06 00:35   10 Cloudy OVC045          %              
Jun 05 23:35 Calm 10 Mostly Cloudy BKN120 61 58     92%     29.73        
Jun 05 22:55 N 9 10 Light Rain SCT019 BKN050 OVC080 62 59     91%     29.72        
Notice The following observation data may not be complete
Jun 05 22:35   7 Cloudy SCT025 SCT036 OVC060          %         0